| time (UTC) | temp C | wind direction | speed KPH | gust KPH | rain 1hr cm | rain 24hr cm | rain mn cm | humidity % | barometer mb |
| 20260508064523 | 11 | 39 | 0.0 | 0.0 | 0.00 | 2.34 | 0.00 | 96 | 1014.2 |
| 20260508064010 | 11 | 39 | 0.0 | 0.0 | 0.00 | 2.34 | 0.00 | 96 | 1014.1 |
| 20260508063508 | 11 | 39 | 0.0 | 0.0 | 0.00 | 2.34 | 0.00 | 96 | 1014.2 |
| 20260508063022 | 11 | 39 | 0.0 | 0.0 | 0.00 | 2.34 | 0.00 | 96 | 1014.2 |
| 20260508062508 | 11 | 39 | 0.0 | 0.0 | 0.00 | 2.36 | 0.00 | 96 | 1014.1 |
| 20260508062009 | 11 | 39 | 0.0 | 0.0 | 0.00 | 2.36 | 0.00 | 96 | 1014.2 |
| 20260508061523 | 11 | 39 | 0.0 | 0.0 | 0.00 | 2.36 | 0.00 | 96 | 1014.2 |
| 20260508061009 | 11 | 39 | 0.0 | 0.0 | 0.00 | 2.36 | 0.00 | 96 | 1014.1 |
| 20260508060512 | 11 | 39 | 0.0 | 0.0 | 0.00 | 2.36 | 0.00 | 96 | 1014.2 |
| 20260508060013 | 11 | 39 | 0.0 | 0.0 | 0.00 | 2.36 | 0.00 | 96 | 1014.2 |
| 20260508055504 | 11 | 39 | 0.0 | 0.0 | 0.00 | 2.36 | 0.00 | 96 | 1014.1 |
| 20260508055004 | 11 | 39 | 0.0 | 0.0 | 0.00 | 2.36 | 0.00 | 96 | 1014.0 |
| 20260508054517 | 11 | 39 | 0.0 | 0.0 | 0.00 | 2.36 | 0.00 | 96 | 1014.0 |
| 20260508054006 | 11 | 39 | 0.0 | 0.0 | 0.00 | 2.36 | 0.00 | 96 | 1014.1 |
| 20260508053507 | 11 | 39 | 0.0 | 0.0 | 0.00 | 2.36 | 0.00 | 96 | 1014.1 |
| 20260508053022 | 11 | 39 | 0.0 | 0.0 | 0.00 | 2.36 | 0.00 | 96 | 1014.1 |
| 20260508052505 | 11 | 39 | 0.0 | 0.0 | 0.00 | 2.36 | 0.00 | 96 | 1014.0 |
| 20260508052007 | 11 | 39 | 0.0 | 0.0 | 0.00 | 2.39 | 0.00 | 96 | 1014.0 |
| 20260508051526 | 11 | 39 | 0.0 | 0.0 | 0.00 | 2.39 | 0.00 | 96 | 1013.9 |
| 20260508051011 | 11 | 39 | 0.0 | 0.0 | 0.00 | 2.41 | 0.00 | 96 | 1013.9 |
| 20260508050509 | 11 | 39 | 0.0 | 0.0 | 0.00 | 2.62 | 0.00 | 96 | 1014.0 |
| 20260508050024 | 11 | 39 | 0.0 | 0.0 | 0.00 | 2.87 | 0.00 | 96 | 1013.9 |
| 20260508045508 | 11 | 39 | 0.0 | 0.0 | 0.00 | 2.95 | 0.00 | 96 | 1013.9 |
| 20260508045008 | 12 | 39 | 0.0 | 0.0 | 0.00 | 2.95 | 0.00 | 96 | 1013.9 |
| 20260508044516 | 12 | 39 | 0.0 | 0.0 | 0.00 | 3.07 | 0.00 | 96 | 1014.0 |
| 20260508044003 | 12 | 39 | 0.0 | 0.0 | 0.00 | 3.25 | 0.00 | 96 | 1013.8 |
| 20260508043505 | 12 | 39 | 0.0 | 0.0 | 0.00 | 3.43 | 0.00 | 96 | 1013.9 |
| 20260508043036 | 12 | 39 | 0.0 | 0.0 | 0.00 | 3.53 | 0.00 | 96 | 1013.9 |
| 20260508042507 | 12 | 39 | 0.0 | 0.0 | 0.00 | 3.58 | 0.00 | 96 | 1013.9 |
| 20260508042007 | 12 | 39 | 0.0 | 0.0 | 0.00 | 3.58 | 0.00 | 96 | 1013.8 |
| 20260508041523 | 12 | 39 | 0.0 | 0.0 | 0.00 | 3.58 | 0.00 | 96 | 1013.8 |
| 20260508041007 | 12 | 39 | 0.0 | 0.0 | 0.00 | 3.58 | 0.00 | 96 | 1013.8 |
| 20260508040510 | 12 | 39 | 0.0 | 0.0 | 0.00 | 3.58 | 0.00 | 96 | 1013.7 |
| 20260508040029 | 12 | 39 | 0.0 | 0.0 | 0.00 | 3.58 | 0.00 | 96 | 1013.8 |
| 20260508035509 | 12 | 42 | 0.0 | 0.0 | 0.00 | 3.58 | 3.58 | 96 | 1013.7 |
| 20260508035009 | 12 | 42 | 0.0 | 0.0 | 0.00 | 3.58 | 3.58 | 96 | 1013.8 |
| 20260508034526 | 12 | 42 | 0.0 | 0.0 | 0.00 | 3.58 | 3.58 | 96 | 1013.5 |
| 20260508034007 | 12 | 42 | 0.0 | 0.0 | 0.00 | 3.58 | 3.58 | 96 | 1013.4 |
| 20260508033510 | 12 | 88 | 0.0 | 0.0 | 0.00 | 3.58 | 3.58 | 96 | 1013.4 |
| 20260508033015 | 12 | 88 | 0.0 | 0.0 | 0.00 | 3.58 | 3.58 | 96 | 1013.2 |
| 20260508032504 | 12 | 88 | 0.0 | 0.0 | 0.00 | 3.58 | 3.58 | 96 | 1013.1 |
| 20260508032006 | 12 | 88 | 0.0 | 0.0 | 0.00 | 3.58 | 3.58 | 96 | 1013.4 |
| 20260508031523 | 12 | 88 | 0.0 | 0.0 | 0.00 | 3.58 | 3.58 | 96 | 1012.9 |
| 20260508031008 | 12 | 88 | 0.0 | 0.0 | 0.00 | 3.58 | 3.58 | 96 | 1012.9 |
| 20260508030507 | 12 | 88 | 0.0 | 0.0 | 0.00 | 3.58 | 3.58 | 96 | 1013.2 |
| 20260508030038 | 12 | 88 | 0.0 | 0.0 | 0.00 | 3.58 | 3.58 | 96 | 1013.1 |
| 20260508025511 | 12 | 88 | 0.0 | 0.0 | 0.00 | 3.58 | 3.58 | 96 | 1012.8 |
| 20260508025003 | 12 | 88 | 0.0 | 0.0 | 0.00 | 3.58 | 3.58 | 96 | 1012.7 |
| 20260508024004 | 12 | 88 | 0.0 | 0.0 | 0.00 | 3.58 | 3.58 | 96 | 1012.7 |
| 20260508023505 | 12 | 88 | 0.0 | 0.0 | 0.03 | 3.58 | 3.58 | 96 | 1012.6 |
| 20260508022504 | 12 | 88 | 0.0 | 0.0 | 0.03 | 3.58 | 3.58 | 96 | 1012.7 |
| 20260508022009 | 12 | 88 | 0.0 | 0.0 | 0.03 | 3.58 | 3.58 | 96 | 1012.6 |
| 20260508021520 | 12 | 88 | 0.0 | 0.0 | 0.03 | 3.58 | 3.58 | 96 | 1012.5 |
| 20260508021009 | 12 | 88 | 0.0 | 0.0 | 0.03 | 3.58 | 3.58 | 96 | 1012.3 |
| 20260508020505 | 12 | 88 | 0.0 | 0.0 | 0.03 | 3.58 | 3.58 | 96 | 1012.2 |
| 20260508020024 | 12 | 88 | 0.0 | 0.0 | 0.03 | 3.58 | 3.58 | 96 | 1012.4 |
| 20260508015507 | 12 | 88 | 0.0 | 0.0 | 0.03 | 3.58 | 3.58 | 96 | 1012.4 |
| 20260508015009 | 11 | 88 | 0.0 | 0.0 | 0.03 | 3.58 | 3.58 | 96 | 1012.5 |
| 20260508014524 | 11 | 88 | 0.0 | 0.0 | 0.03 | 3.58 | 3.58 | 96 | 1012.5 |
| 20260508014011 | 11 | 88 | 0.0 | 0.0 | 0.05 | 3.58 | 3.58 | 96 | 1012.3 |
| 20260508013505 | 11 | 88 | 0.0 | 0.0 | 0.03 | 3.56 | 3.56 | 96 | 1012.3 |
| 20260508013010 | 12 | 88 | 0.0 | 3.2 | 0.10 | 3.56 | 3.56 | 96 | 1012.2 |
| 20260508012503 | 11 | 88 | 0.0 | 3.2 | 0.20 | 3.56 | 3.56 | 95 | 1011.9 |
| 20260508012007 | 11 | 66 | 0.0 | 0.0 | 0.28 | 3.56 | 3.56 | 95 | 1011.5 |
| 20260508011515 | 11 | 57 | 0.0 | 0.0 | 0.36 | 3.56 | 3.56 | 95 | 1011.6 |
| 20260508011007 | 12 | 57 | 0.0 | 0.0 | 0.36 | 3.56 | 3.56 | 95 | 1011.6 |
| 20260508010506 | 11 | 57 | 0.0 | 0.0 | 0.36 | 3.56 | 3.56 | 95 | 1011.6 |
| 20260508005512 | 12 | 57 | 0.0 | 0.0 | 0.36 | 3.56 | 3.56 | 95 | 1011.6 |
| 20260508005008 | 12 | 57 | 0.0 | 0.0 | 0.36 | 3.56 | 3.56 | 95 | 1011.6 |
| 20260508004011 | 12 | 56 | 0.0 | 3.2 | 0.33 | 3.53 | 3.53 | 94 | 1011.8 |
| 20260508003026 | 12 | 102 | 0.0 | 3.2 | 0.25 | 3.45 | 3.45 | 94 | 1011.6 |
| 20260508002507 | 12 | 289 | 0.0 | 0.0 | 0.15 | 3.35 | 3.35 | 93 | 1012.0 |
| 20260508002003 | 12 | 290 | 0.0 | 3.2 | 0.08 | 3.28 | 3.28 | 93 | 1011.9 |
| 20260508001515 | 12 | 290 | 0.0 | 3.2 | 0.00 | 3.20 | 3.20 | 92 | 1011.7 |
| 20260508001003 | 12 | 76 | 0.0 | 3.2 | 0.00 | 3.20 | 3.20 | 91 | 1011.1 |
| 20260508000511 | 12 | 85 | 0.0 | 3.2 | 0.00 | 3.20 | 3.20 | 91 | 1011.0 |
| 20260507235505 | 12 | 98 | 0.0 | 3.2 | 0.00 | 3.20 | 3.20 | 91 | 1010.5 |
| 20260507235008 | 12 | 111 | 0.0 | 3.2 | 0.00 | 3.20 | 3.20 | 91 | 1010.4 |
| 20260507234524 | 12 | 98 | 0.0 | 3.2 | 0.00 | 3.20 | 3.20 | 90 | 1010.4 |
| 20260507234007 | 12 | 80 | 0.0 | 3.2 | 0.00 | 3.20 | 3.20 | 91 | 1010.6 |
| 20260507233508 | 12 | 98 | 0.0 | 1.6 | 0.00 | 3.20 | 3.20 | 91 | 1010.6 |
| 20260507233026 | 12 | 98 | 0.0 | 3.2 | 0.00 | 3.20 | 3.20 | 90 | 1010.7 |
| 20260507232509 | 12 | 92 | 0.0 | 3.2 | 0.00 | 3.20 | 3.20 | 90 | 1010.7 |
| 20260507232010 | 12 | 101 | 0.0 | 3.2 | 0.00 | 3.20 | 3.20 | 90 | 1010.7 |
| 20260507231528 | 12 | 90 | 0.0 | 4.8 | 0.00 | 3.20 | 3.20 | 91 | 1010.8 |
| 20260507231004 | 12 | 94 | 0.0 | 4.8 | 0.00 | 3.20 | 3.20 | 90 | 1010.4 |
| 20260507230511 | 12 | 85 | 0.0 | 4.8 | 0.00 | 3.20 | 3.20 | 90 | 1010.4 |
| 20260507230016 | 12 | 88 | 0.0 | 3.2 | 0.00 | 3.20 | 3.20 | 90 | 1010.4 |
| 20260507225510 | 12 | 84 | 0.0 | 3.2 | 0.00 | 3.20 | 3.20 | 90 | 1010.4 |
| 20260507225004 | 12 | 299 | 0.0 | 3.2 | 0.00 | 3.20 | 3.20 | 90 | 1010.4 |
| 20260507224520 | 12 | 105 | 0.0 | 6.4 | 0.00 | 3.20 | 3.20 | 90 | 1010.2 |
| 20260507224007 | 12 | 106 | 1.6 | 6.4 | 0.00 | 3.20 | 3.20 | 90 | 1010.3 |
| 20260507223508 | 12 | 113 | 1.6 | 6.4 | 0.00 | 3.20 | 3.20 | 90 | 1010.2 |
| 20260507223021 | 12 | 93 | 0.0 | 3.2 | 0.00 | 3.20 | 3.20 | 90 | 1010.2 |
| 20260507222510 | 12 | 80 | 0.0 | 3.2 | 0.00 | 3.20 | 3.20 | 90 | 1010.0 |
| 20260507222011 | 12 | 303 | 1.6 | 4.8 | 0.00 | 3.20 | 3.20 | 91 | 1009.9 |
| 20260507221525 | 12 | 95 | 1.6 | 4.8 | 0.00 | 3.20 | 3.20 | 90 | 1010.1 |
| 20260507221009 | 12 | 109 | 0.0 | 9.7 | 0.00 | 3.20 | 3.20 | 91 | 1010.0 |
| 20260507220510 | 12 | 87 | 1.6 | 9.7 | 0.00 | 3.20 | 3.20 | 91 | 1010.2 |
| 20260507220026 | 12 | 104 | 1.6 | 4.8 | 0.00 | 3.20 | 3.20 | 92 | 1009.9 |
| 20260507215507 | 12 | 107 | 1.6 | 3.2 | 0.00 | 3.20 | 3.20 | 91 | 1010.3 |
| 20260507215005 | 12 | 38 | 0.0 | 4.8 | 0.00 | 3.20 | 3.20 | 92 | 1010.3 |
| 20260507214515 | 12 | 85 | 0.0 | 4.8 | 0.00 | 3.20 | 3.20 | 92 | 1010.2 |
| 20260507214008 | 12 | 106 | 1.6 | 4.8 | 0.00 | 3.20 | 3.20 | 92 | 1009.9 |
| 20260507213507 | 12 | 175 | 0.0 | 4.8 | 0.00 | 3.20 | 3.20 | 93 | 1009.9 |
| 20260507213021 | 12 | 79 | 0.0 | 4.8 | 0.00 | 3.20 | 3.20 | 93 | 1009.8 |
| 20260507212508 | 12 | 71 | 0.0 | 4.8 | 0.00 | 3.20 | 3.20 | 93 | 1009.8 |
| 20260507212010 | 12 | 87 | 0.0 | 3.2 | 0.00 | 3.20 | 3.20 | 93 | 1009.8 |
| 20260507211524 | 12 | 204 | 0.0 | 4.8 | 0.03 | 3.20 | 3.20 | 94 | 1009.6 |
| 20260507211004 | 12 | 96 | 0.0 | 4.8 | 0.03 | 3.20 | 3.20 | 93 | 1009.5 |
| 20260507210507 | 12 | 302 | 0.0 | 4.8 | 0.03 | 3.20 | 3.20 | 94 | 1009.6 |
| 20260507210012 | 12 | 89 | 1.6 | 6.4 | 0.03 | 3.20 | 3.20 | 93 | 1009.4 |
| 20260507205505 | 13 | 77 | 1.6 | 6.4 | 0.03 | 3.20 | 3.20 | 94 | 1009.5 |
| 20260507205009 | 13 | 25 | 1.6 | 4.8 | 0.03 | 3.20 | 3.20 | 94 | 1009.4 |
| 20260507204516 | 13 | 94 | 0.0 | 4.8 | 0.03 | 3.20 | 3.20 | 94 | 1009.2 |
| 20260507204006 | 13 | 77 | 1.6 | 9.7 | 0.03 | 3.20 | 3.20 | 94 | 1009.3 |
| 20260507203507 | 13 | 85 | 1.6 | 9.7 | 0.03 | 3.20 | 3.20 | 94 | 1009.3 |
| 20260507203019 | 13 | 240 | 0.0 | 3.2 | 0.03 | 3.20 | 3.20 | 94 | 1009.1 |
| 20260507202508 | 13 | 73 | 0.0 | 9.7 | 0.03 | 3.20 | 3.20 | 94 | 1009.2 |
| 20260507202009 | 13 | 71 | 0.0 | 9.7 | 0.03 | 3.20 | 3.20 | 94 | 1009.3 |
| 20260507201528 | 13 | 82 | 0.0 | 6.4 | 0.00 | 3.17 | 3.17 | 94 | 1009.2 |
| 20260507201010 | 13 | 94 | 0.0 | 6.4 | 0.00 | 3.17 | 3.17 | 94 | 1009.3 |
| 20260507200510 | 13 | 92 | 0.0 | 6.4 | 0.00 | 3.17 | 3.17 | 94 | 1009.1 |
| 20260507200011 | 13 | 332 | 3.2 | 6.4 | 0.00 | 3.17 | 3.17 | 94 | 1009.3 |
| 20260507195504 | 14 | 302 | 0.0 | 3.2 | 0.00 | 3.17 | 3.17 | 94 | 1009.2 |
| 20260507195005 | 14 | 192 | 0.0 | 3.2 | 0.00 | 3.17 | 3.17 | 94 | 1009.1 |
| 20260507194514 | 14 | 346 | 0.0 | 4.8 | 0.00 | 3.17 | 3.17 | 94 | 1009.2 |
| 20260507194005 | 14 | 130 | 0.0 | 4.8 | 0.00 | 3.17 | 3.17 | 94 | 1009.1 |
| 20260507193506 | 14 | 60 | 0.0 | 9.7 | 0.00 | 3.20 | 3.17 | 94 | 1009.0 |
| 20260507193025 | 14 | 199 | 0.0 | 9.7 | 0.00 | 3.20 | 3.17 | 93 | 1009.1 |
| 20260507192508 | 15 | 54 | 0.0 | 3.2 | 0.00 | 3.20 | 3.17 | 94 | 1009.0 |
| 20260507192008 | 15 | 300 | 0.0 | 3.2 | 0.00 | 3.20 | 3.17 | 94 | 1009.0 |
| 20260507191521 | 15 | 87 | 0.0 | 6.4 | 0.00 | 3.20 | 3.17 | 94 | 1009.0 |
| 20260507191008 | 15 | 315 | 0.0 | 6.4 | 0.00 | 3.20 | 3.17 | 94 | 1009.2 |
| 20260507190508 | 15 | 80 | 0.0 | 3.2 | 0.00 | 3.20 | 3.17 | 94 | 1009.0 |
| 20260507190026 | 15 | 96 | 0.0 | 4.8 | 0.00 | 3.20 | 3.17 | 94 | 1008.7 |
| 20260507185508 | 15 | 21 | 0.0 | 4.8 | 0.00 | 3.20 | 3.17 | 93 | 1008.2 |
| 20260507185010 | 15 | 104 | 1.6 | 3.2 | 0.00 | 3.20 | 3.17 | 93 | 1008.1 |
| 20260507184512 | 16 | 66 | 0.0 | 3.2 | 0.00 | 3.20 | 3.17 | 94 | 1008.6 |
| 20260507184005 | 16 | 89 | 0.0 | 4.8 | 0.00 | 3.20 | 3.17 | 92 | 1008.6 |
| 20260507183506 | 16 | 110 | 1.6 | 8.0 | 0.00 | 3.20 | 3.17 | 92 | 1008.8 |
| 20260507183025 | 17 | 39 | 1.6 | 11.3 | 0.00 | 3.20 | 3.17 | 91 | 1008.9 |
| 20260507182505 | 17 | 309 | 0.0 | 11.3 | 0.00 | 3.20 | 3.17 | 89 | 1008.6 |
| 20260507182007 | 19 | 69 | 1.6 | 4.8 | 0.00 | 3.20 | 3.17 | 85 | 1008.0 |
| 20260507181518 | 21 | 74 | 1.6 | 3.2 | 0.00 | 3.20 | 3.17 | 90 | 1008.1 |
| 20260507181009 | 21 | 171 | 0.0 | 3.2 | 0.00 | 3.20 | 3.17 | 92 | 1008.3 |
| 20260507180507 | 21 | 175 | 0.0 | 1.6 | 0.00 | 3.20 | 3.17 | 93 | 1007.9 |
| 20260507180023 | 21 | 241 | 0.0 | 3.2 | 0.00 | 3.20 | 3.17 | 94 | 1008.2 |
| 20260507175508 | 20 | 244 | 0.0 | 3.2 | 0.00 | 3.20 | 3.17 | 94 | 1008.4 |
| 20260507175008 | 20 | 261 | 0.0 | 1.6 | 0.00 | 3.20 | 3.17 | 94 | 1008.6 |
| 20260507174532 | 20 | 228 | 0.0 | 3.2 | 0.00 | 3.20 | 3.17 | 94 | 1008.6 |
| 20260507174009 | 20 | 295 | 0.0 | 3.2 | 0.00 | 3.20 | 3.17 | 94 | 1008.6 |
| 20260507173505 | 20 | 234 | 0.0 | 0.0 | 0.00 | 3.20 | 3.17 | 95 | 1008.3 |
| 20260507173013 | 20 | 234 | 0.0 | 3.2 | 0.00 | 3.20 | 3.17 | 95 | 1008.3 |
| 20260507172505 | 20 | 240 | 0.0 | 3.2 | 0.00 | 3.20 | 3.17 | 95 | 1008.3 |
| 20260507172008 | 20 | 206 | 0.0 | 3.2 | 0.00 | 3.20 | 3.17 | 95 | 1008.2 |
| 20260507171527 | 20 | 192 | 0.0 | 3.2 | 0.00 | 3.20 | 3.17 | 96 | 1008.1 |
| 20260507171006 | 20 | 192 | 1.6 | 3.2 | 0.00 | 3.20 | 3.17 | 96 | 1007.9 |
| 20260507170508 | 20 | 199 | 0.0 | 3.2 | 0.00 | 3.20 | 3.17 | 96 | 1008.2 |
| 20260507170022 | 20 | 199 | 0.0 | 3.2 | 0.00 | 3.20 | 3.17 | 96 | 1008.2 |
| 20260507165508 | 20 | 192 | 0.0 | 3.2 | 0.00 | 3.20 | 3.17 | 95 | 1008.3 |
| 20260507165008 | 20 | 195 | 0.0 | 3.2 | 0.00 | 3.20 | 3.17 | 95 | 1008.5 |
| 20260507164523 | 20 | 219 | 0.0 | 1.6 | 0.00 | 3.20 | 3.17 | 95 | 1008.8 |
| 20260507164010 | 20 | 232 | 0.0 | 0.0 | 0.00 | 3.20 | 3.17 | 96 | 1008.8 |
| 20260507163510 | 20 | 289 | 0.0 | 0.0 | 0.00 | 3.20 | 3.17 | 96 | 1009.1 |
| 20260507163027 | 20 | 290 | 0.0 | 3.2 | 0.00 | 3.20 | 3.17 | 96 | 1009.1 |
| 20260507162506 | 20 | 290 | 0.0 | 3.2 | 0.03 | 3.20 | 3.17 | 96 | 1009.2 |
| 20260507162008 | 20 | 290 | 0.0 | 0.0 | 0.03 | 3.20 | 3.17 | 96 | 1009.4 |
| 20260507161519 | 20 | 304 | 0.0 | 0.0 | 0.03 | 3.20 | 3.17 | 96 | 1009.6 |
| 20260507161008 | 20 | 306 | 0.0 | 3.2 | 0.05 | 3.20 | 3.17 | 96 | 1009.6 |
| 20260507160511 | 20 | 306 | 0.0 | 3.2 | 0.10 | 3.20 | 3.17 | 96 | 1009.7 |
| 20260507160031 | 20 | 78 | 0.0 | 0.0 | 0.13 | 3.20 | 3.17 | 96 | 1009.9 |
| 20260507155510 | 20 | 13 | 0.0 | 0.0 | 0.18 | 3.20 | 3.17 | 96 | 1009.8 |
| 20260507155010 | 19 | 26 | 0.0 | 0.0 | 0.23 | 3.20 | 3.17 | 96 | 1009.4 |
| 20260507154522 | 19 | 26 | 0.0 | 3.2 | 0.36 | 3.20 | 3.17 | 96 | 1009.3 |
| 20260507154009 | 19 | 84 | 0.0 | 3.2 | 0.53 | 3.20 | 3.17 | 96 | 1009.2 |
| 20260507153510 | 19 | 82 | 0.0 | 3.2 | 0.66 | 3.20 | 3.17 | 96 | 1009.0 |
| 20260507153025 | 19 | 266 | 0.0 | 3.2 | 0.76 | 3.20 | 3.17 | 96 | 1009.3 |
| 20260507152509 | 19 | 268 | 0.0 | 3.2 | 0.86 | 3.17 | 3.15 | 96 | 1009.6 |
| 20260507152012 | 18 | 175 | 0.0 | 3.2 | 0.97 | 3.17 | 3.15 | 96 | 1009.1 |
| 20260507151527 | 18 | 153 | 0.0 | 1.6 | 1.12 | 3.17 | 3.15 | 96 | 1009.3 |
| 20260507151006 | 18 | 226 | 0.0 | 3.2 | 1.22 | 3.15 | 3.12 | 96 | 1009.5 |
| 20260507150508 | 18 | 139 | 0.0 | 3.2 | 1.30 | 3.10 | 3.07 | 96 | 1009.5 |
| 20260507150021 | 18 | 204 | 0.0 | 3.2 | 1.32 | 3.07 | 3.05 | 96 | 1009.7 |
| 20260507145503 | 18 | 327 | 0.0 | 3.2 | 1.27 | 3.02 | 2.97 | 96 | 1010.0 |
| 20260507145005 | 18 | 253 | 0.0 | 6.4 | 1.22 | 2.95 | 2.95 | 96 | 1010.1 |
| 20260507144003 | 19 | 275 | 0.0 | 4.8 | 0.91 | 2.64 | 2.64 | 96 | 1010.0 |
| 20260507143502 | 19 | 215 | 1.6 | 4.8 | 0.79 | 2.54 | 2.51 | 96 | 1009.9 |
| 20260507142502 | 19 | 233 | 0.0 | 3.2 | 0.56 | 2.31 | 2.29 | 96 | 1010.1 |
| 20260507142005 | 19 | 153 | 0.0 | 3.2 | 0.46 | 2.21 | 2.18 | 96 | 1010.2 |
| 20260507141511 | 19 | 233 | 0.0 | 3.2 | 0.30 | 2.06 | 2.03 | 96 | 1010.2 |
| 20260507141007 | 19 | 51 | 0.0 | 3.2 | 0.18 | 1.93 | 1.91 | 96 | 1010.2 |
| 20260507140507 | 19 | 290 | 0.0 | 1.6 | 0.05 | 1.80 | 1.78 | 96 | 1010.3 |
| 20260507140015 | 19 | 180 | 0.0 | 1.6 | 0.00 | 1.75 | 1.73 | 96 | 1010.2 |
| 20260507135506 | 19 | 180 | 0.0 | 1.6 | 0.00 | 1.75 | 1.73 | 96 | 1010.2 |
| 20260507135006 | 19 | 182 | 0.0 | 3.2 | 0.00 | 1.75 | 1.73 | 96 | 1010.2 |
| 20260507134504 | 19 | 178 | 0.0 | 3.2 | 0.00 | 1.75 | 1.73 | 96 | 1010.2 |
| 20260507134003 | 19 | 23 | 0.0 | 0.0 | 0.00 | 1.75 | 1.73 | 96 | 1010.1 |
| 20260507133503 | 19 | 23 | 0.0 | 1.6 | 0.00 | 1.75 | 1.73 | 96 | 1010.1 |
| 20260507133004 | 19 | 23 | 0.0 | 1.6 | 0.00 | 1.75 | 1.73 | 96 | 1010.1 |
| 20260507132503 | 19 | 24 | 0.0 | 1.6 | 0.00 | 1.75 | 1.73 | 96 | 1010.1 |
| 20260507132003 | 19 | 296 | 0.0 | 0.0 | 0.00 | 1.75 | 1.73 | 96 | 1010.2 |
| 20260507131512 | 19 | 209 | 0.0 | 1.6 | 0.00 | 1.75 | 1.73 | 96 | 1010.2 |
| 20260507131004 | 19 | 209 | 0.0 | 3.2 | 0.00 | 1.75 | 1.73 | 96 | 1010.1 |
| 20260507130505 | 19 | 199 | 0.0 | 3.2 | 0.00 | 1.75 | 1.73 | 96 | 1010.1 |
| 20260507130030 | 19 | 182 | 0.0 | 3.2 | 0.00 | 1.75 | 1.73 | 96 | 1009.9 |
| 20260507125509 | 19 | 188 | 0.0 | 3.2 | 0.00 | 1.75 | 1.73 | 96 | 1010.0 |
| 20260507125011 | 19 | 224 | 0.0 | 3.2 | 0.00 | 1.75 | 1.73 | 96 | 1010.0 |
| 20260507124519 | 19 | 218 | 0.0 | 3.2 | 0.00 | 1.75 | 1.73 | 96 | 1010.0 |
| 20260507124008 | 19 | 230 | 0.0 | 3.2 | 0.00 | 1.75 | 1.73 | 96 | 1010.0 |
| 20260507123507 | 19 | 202 | 0.0 | 3.2 | 0.00 | 1.75 | 1.73 | 96 | 1010.0 |
| 20260507123006 | 18 | 201 | 0.0 | 3.2 | 0.00 | 1.75 | 1.73 | 96 | 1010.1 |
| 20260507122503 | 18 | 190 | 0.0 | 3.2 | 0.00 | 1.75 | 1.73 | 96 | 1010.2 |
| 20260507122004 | 18 | 215 | 0.0 | 3.2 | 0.00 | 1.75 | 1.73 | 96 | 1010.3 |
| 20260507121508 | 18 | 208 | 0.0 | 3.2 | 0.00 | 1.75 | 1.73 | 96 | 1010.4 |
| 20260507121004 | 18 | 211 | 0.0 | 3.2 | 0.00 | 1.75 | 1.73 | 96 | 1010.3 |
| 20260507120503 | 18 | 232 | 0.0 | 3.2 | 0.00 | 1.75 | 1.73 | 96 | 1010.5 |
| 20260507115507 | 18 | 202 | 0.0 | 3.2 | 0.00 | 1.75 | 1.73 | 96 | 1010.6 |
| 20260507115006 | 18 | 202 | 0.0 | 3.2 | 0.00 | 1.75 | 1.73 | 96 | 1010.6 |
| 20260507114522 | 18 | 194 | 0.0 | 3.2 | 0.00 | 1.75 | 1.73 | 96 | 1010.7 |
| 20260507114006 | 18 | 194 | 0.0 | 3.2 | 0.03 | 1.75 | 1.73 | 96 | 1010.8 |
| 20260507113509 | 18 | 194 | 0.0 | 3.2 | 0.03 | 1.75 | 1.73 | 96 | 1010.8 |
| 20260507113024 | 18 | 203 | 0.0 | 0.0 | 0.05 | 1.75 | 1.73 | 96 | 1010.8 |
| 20260507112507 | 18 | 203 | 0.0 | 3.2 | 0.05 | 1.75 | 1.73 | 96 | 1010.8 |
| 20260507112005 | 18 | 203 | 0.0 | 3.2 | 0.05 | 1.75 | 1.73 | 96 | 1010.7 |
| 20260507111004 | 18 | 199 | 0.0 | 0.0 | 0.08 | 1.75 | 1.73 | 96 | 1010.9 |
| 20260507110504 | 18 | 195 | 0.0 | 0.0 | 0.08 | 1.75 | 1.73 | 96 | 1010.9 |
| 20260507110015 | 18 | 190 | 0.0 | 0.0 | 0.08 | 1.75 | 1.73 | 96 | 1010.9 |
| 20260507105504 | 18 | 190 | 0.0 | 0.0 | 0.10 | 1.75 | 1.73 | 96 | 1010.7 |
| 20260507105003 | 18 | 190 | 0.0 | 0.0 | 0.10 | 1.75 | 1.73 | 96 | 1010.6 |
| 20260507104519 | 18 | 190 | 0.0 | 0.0 | 0.10 | 1.75 | 1.73 | 96 | 1010.6 |
| 20260507104005 | 18 | 190 | 0.0 | 0.0 | 0.08 | 1.73 | 1.70 | 96 | 1010.7 |
| 20260507103506 | 18 | 190 | 0.0 | 3.2 | 0.08 | 1.73 | 1.70 | 96 | 1010.6 |
| 20260507103025 | 18 | 190 | 0.0 | 3.2 | 0.05 | 1.70 | 1.68 | 96 | 1010.6 |
| 20260507102508 | 18 | 201 | 0.0 | 3.2 | 0.05 | 1.70 | 1.68 | 96 | 1010.4 |
| 20260507102009 | 18 | 190 | 1.6 | 3.2 | 0.08 | 1.70 | 1.68 | 96 | 1010.4 |
| 20260507101526 | 18 | 192 | 0.0 | 0.0 | 0.08 | 1.70 | 1.68 | 96 | 1010.6 |
| 20260507101009 | 18 | 192 | 0.0 | 0.0 | 0.05 | 1.68 | 1.65 | 96 | 1010.8 |
| 20260507100504 | 18 | 192 | 0.0 | 0.0 | 0.05 | 1.68 | 1.65 | 96 | 1010.7 |
| 20260507100010 | 18 | 192 | 0.0 | 3.2 | 0.05 | 1.68 | 1.65 | 96 | 1010.6 |
| 20260507095503 | 18 | 190 | 0.0 | 3.2 | 0.03 | 1.65 | 1.63 | 96 | 1010.4 |
| 20260507095008 | 18 | 194 | 0.0 | 0.0 | 0.03 | 1.65 | 1.63 | 96 | 1010.4 |
| 20260507094516 | 18 | 195 | 0.0 | 0.0 | 0.05 | 1.65 | 1.63 | 96 | 1010.5 |
| 20260507094011 | 18 | 194 | 0.0 | 0.0 | 0.08 | 1.65 | 1.63 | 96 | 1010.5 |
| 20260507093504 | 18 | 194 | 0.0 | 1.6 | 0.10 | 1.65 | 1.63 | 96 | 1010.6 |
| 20260507093021 | 18 | 194 | 0.0 | 3.2 | 0.18 | 1.65 | 1.63 | 96 | 1010.3 |
| 20260507092507 | 18 | 186 | 0.0 | 3.2 | 0.20 | 1.65 | 1.63 | 96 | 1010.3 |
| 20260507092008 | 18 | 194 | 0.0 | 3.2 | 0.20 | 1.63 | 1.60 | 96 | 1010.4 |
| 20260507091533 | 18 | 221 | 0.0 | 0.0 | 0.20 | 1.63 | 1.60 | 96 | 1010.6 |
| 20260507091009 | 18 | 202 | 0.0 | 3.2 | 0.23 | 1.63 | 1.60 | 96 | 1010.6 |
| 20260507090508 | 18 | 202 | 0.0 | 3.2 | 0.23 | 1.63 | 1.60 | 96 | 1010.5 |
| 20260507090028 | 18 | 203 | 0.0 | 3.2 | 0.25 | 1.63 | 1.60 | 96 | 1010.5 |
| 20260507085504 | 18 | 195 | 0.0 | 1.6 | 0.25 | 1.63 | 1.60 | 96 | 1010.7 |
| 20260507085004 | 18 | 195 | 0.0 | 1.6 | 0.28 | 1.63 | 1.60 | 96 | 1010.7 |
| 20260507084516 | 18 | 195 | 0.0 | 3.2 | 0.28 | 1.60 | 1.57 | 96 | 1010.9 |
| 20260507084003 | 18 | 195 | 0.0 | 3.2 | 0.28 | 1.57 | 1.55 | 96 | 1010.8 |
| 20260507083507 | 18 | 233 | 0.0 | 3.2 | 0.25 | 1.55 | 1.52 | 96 | 1010.7 |
| 20260507082507 | 18 | 186 | 0.0 | 4.8 | 0.18 | 1.45 | 1.42 | 96 | 1011.2 |
| 20260507082009 | 18 | 189 | 0.0 | 1.6 | 0.15 | 1.42 | 1.40 | 96 | 1011.2 |
| 20260507081523 | 18 | 163 | 0.0 | 3.2 | 0.15 | 1.42 | 1.40 | 96 | 1011.1 |
| 20260507081006 | 18 | 200 | 0.0 | 3.2 | 0.13 | 1.40 | 1.37 | 96 | 1011.0 |
| 20260507080507 | 18 | 306 | 0.0 | 4.8 | 0.13 | 1.40 | 1.37 | 96 | 1011.1 |
| 20260507080024 | 18 | 203 | 0.0 | 4.8 | 0.10 | 1.37 | 1.32 | 96 | 1010.9 |
| 20260507075510 | 18 | 180 | 0.0 | 3.2 | 0.10 | 1.37 | 1.32 | 95 | 1010.5 |
| 20260507075010 | 18 | 17 | 0.0 | 0.0 | 0.08 | 1.32 | 1.32 | 96 | 1011.2 |
| 20260507074525 | 18 | 15 | 0.0 | 0.0 | 0.05 | 1.32 | 1.30 | 95 | 1011.4 |
| 20260507074004 | 18 | 16 | 0.0 | 0.0 | 0.03 | 1.30 | 1.27 | 95 | 1011.3 |
| 20260507073507 | 18 | 15 | 0.0 | 1.6 | 0.03 | 1.30 | 1.27 | 95 | 1011.3 |
| 20260507073017 | 18 | 13 | 0.0 | 1.6 | 0.03 | 1.30 | 1.27 | 95 | 1011.4 |
| 20260507072507 | 18 | 190 | 0.0 | 3.2 | 0.03 | 1.27 | 1.24 | 95 | 1011.2 |
| 20260507072006 | 18 | 190 | 0.0 | 3.2 | 0.03 | 1.27 | 1.24 | 95 | 1011.1 |
| 20260507071528 | 18 | 228 | 0.0 | 0.0 | 0.03 | 1.27 | 1.24 | 95 | 1011.3 |
| 20260507071005 | 18 | 263 | 0.0 | 0.0 | 0.03 | 1.27 | 1.24 | 95 | 1011.6 |
| 20260507070506 | 18 | 315 | 0.0 | 0.0 | 0.03 | 1.27 | 1.24 | 95 | 1011.6 |
| 20260507070028 | 18 | 316 | 0.0 | 0.0 | 0.03 | 1.27 | 1.24 | 95 | 1011.8 |
| 20260507065507 | 18 | 316 | 0.0 | 0.0 | 0.03 | 1.27 | 1.24 | 95 | 1011.8 |
| 20260507065010 | 18 | 316 | 0.0 | 0.0 | 0.03 | 1.27 | 1.24 | 95 | 1011.7 |